[[{"header":{"parameterUnit":"m.s-1","parameterCategory":1,"la1":30.2991,"la2":30.254,"lo1":-89.0895,"lo2":-89.0444,"dx":0.0017,"dy":0.0017,"nx":28,"ny":28,"refTime":"2023-02-12T09:00:00:Z","depth":0,"parameterNumber":2,"parameterNumberName":"U-component_of_WINDS"},"data":[0,0,0,0,0,0,0,0,0,0,0,0,0,0,0,0,0,0,0,0,0,0,0,0,0,0,0,0,0,0,0,0,0,0,0,0,0,0,0,0,0,0,0,0,0,0,0,0,0,0,0,0,0,0,0,0,0,0,9.2686,9.269,0,9.2984,9.2987,9.2991,9.2957,9.2952,9.2947,9.2943,9.3249,9.3261,9.3273,0,0,0,0,0,0,0,0,0,0,0,0,0,9.2091,9.2102,9.2686,9.269,9.2694,9.2983,9.2987,9.2991,9.2958,9.2952,9.2946,9.2941,9.3245,9.3259,9.3274,0,0,0,0,0,0,0,0,0,0,0,0,0,9.2365,9.2106,9.2685,9.2712,9.2717,9.2983,9.2988,9.2993,9.2959,9.2952,9.2945,9.2938,9.324,9.3258,9.3277,9.3535,0,0,9.3334,9.3342,0,0,0,0,0,0,0,0,9.235,9.2387,9.2704,9.271,9.2717,9.2926,9.289,9.3175,9.2961,9.2867,9.2943,9.2935,9.3147,9.3173,9.3245,9.355,9.3563,9.3336,9.3347,9.3355,9.3361,0,0,0,0,0,0,0,9.2331,9.2374,9.2804,9.2709,9.2717,9.2709,9.274,9.2944,9.3043,9.2875,9.2873,9.2909,9.3149,9.3227,9.3252,9.3567,9.3335,9.3352,9.3364,9.3371,9.4103,9.4111,0,0,0,0,0,0,9.2305,9.2359,9.2794,9.2813,9.2512,9.2726,9.2761,9.2866,9.3041,9.3061,9.2914,9.2906,9.3198,9.323,9.3262,9.3579,9.3355,9.3373,9.3384,9.4095,9.4105,9.4114,0,0,0,0,0,0,9.2293,9.2344,9.2782,9.2586,9.2641,9.2744,9.2862,9.2876,9.2953,9.3071,9.3089,9.2975,9.3193,9.3236,9.3468,9.3589,9.3381,9.3398,9.4085,9.4098,9.4109,9.4213,0,0,0,0,0,0,9.2276,9.234,9.2439,9.2588,9.2651,9.2983,9.287,9.2887,9.2985,9.2977,9.3133,9.3152,9.3191,9.344,9.3487,9.3611,9.3413,9.4075,9.4091,9.4105,9.4199,9.4227,9.4251,0,0,0,0,0,9.2254,9.2455,9.2444,9.2496,9.2777,9.299,9.3026,9.3068,9.2995,9.3096,9.3172,9.3147,9.3568,9.3465,9.3517,9.3648,9.4068,9.4086,9.4104,9.4187,9.4222,9.425,0,0,0,0,0,0,9.2317,9.2475,9.2464,9.2719,9.2842,9.2984,9.3112,9.3102,9.3247,9.3234,9.3279,9.3314,9.355,9.3622,9.3504,9.391,9.3808,9.3838,9.3854,9.3887,9.3912,9.389,9.3429,0,0,0,0,0,9.2361,9.252,9.265,9.2863,9.2925,9.3008,9.3102,9.3124,9.3252,9.3304,9.3397,9.3523,9.3685,9.379,9.3944,9.4209,9.4244,9.4326,9.4352,9.4372,9.4398,9.4546,9.4584,9.4174,9.4174,9.4173,0,0,9.2452,9.2558,9.2656,9.2878,9.2975,9.3141,9.3052,9.323,9.3353,9.3331,9.3557,9.363,9.3774,9.4025,9.414,9.4093,9.4519,9.4396,9.4411,9.4426,9.4569,9.4608,9.4642,9.4186,9.4184,9.4182,0,0,9.2704,9.2799,9.2988,9.3088,9.3237,9.3291,9.3337,9.3482,9.353,9.3757,9.3745,9.3893,9.4169,9.4273,9.4362,9.4656,9.4639,9.4705,9.4841,9.4985,9.5017,9.5046,9.5153,9.519,9.473,9.473,9.473,0,9.2799,9.3047,9.3086,9.3268,9.3367,9.3355,9.3547,9.3642,9.3834,9.3903,9.3847,9.4195,9.4291,9.4567,9.4639,9.4711,9.4766,9.4687,9.5009,9.5038,9.5066,9.5168,9.5208,9.4737,9.4736,9.4736,9.4735,0,9.3157,9.333,9.3465,9.3651,9.3765,9.3951,9.402,9.4131,9.4143,9.4204,9.4437,9.4552,9.4731,9.4798,9.4811,9.5078,9.5044,9.4998,9.4897,9.5112,9.5209,9.5248,9.4748,9.4745,9.4743,9.4741,0,0,9.3456,9.3663,9.3712,9.3797,9.3962,9.4096,9.4283,9.4458,9.4553,9.4686,9.4845,9.508,9.504,9.5141,9.5166,9.5292,9.552,9.5231,9.5235,9.5282,9.5823,9.5857,9.5902,9.551,9.5517,9.5524,9.5812,0,9.3724,9.4053,9.4096,9.4389,9.455,9.4542,9.4705,9.4824,9.4887,9.5033,9.5102,9.5269,9.5202,9.5263,9.5388,9.5466,9.563,9.5446,9.5659,9.5666,9.5624,9.5952,9.5989,9.6255,9.585,9.5856,9.5861,0,9.4082,9.4226,9.4534,9.4679,9.4748,9.4894,9.5059,9.5199,9.5335,9.5371,9.5486,9.5496,9.569,9.5581,9.5851,9.5725,9.5815,9.5867,9.5879,9.59,9.5777,9.5984,9.634,9.6381,9.5921,9.5916,9.5912,0,9.427,9.4542,9.4762,9.4835,9.5009,9.5112,9.5189,9.5318,9.5421,9.5566,9.5634,9.5799,9.5891,9.6019,9.6074,9.599,9.6342,9.6237,9.6379,9.6378,9.6454,9.6448,9.683,9.651,9.651,9.6509,9.6508,0,9.4567,9.4756,9.4849,9.4985,9.5198,9.5246,9.5456,9.5529,9.5644,9.5795,9.5799,9.594,9.6004,9.6156,9.6201,9.6418,9.6459,9.6495,9.6505,9.6496,9.6492,9.6556,9.6539,9.6519,9.6517,9.6515,9.6513,0,9.4814,9.4883,9.5123,9.5269,9.531,9.5461,9.5585,9.5718,9.5779,9.5971,9.6018,9.6116,9.6295,9.6363,9.6582,9.6612,9.6864,9.6858,9.6818,9.6821,9.696,9.6946,9.7397,9.746,9.7097,9.7101,9.7103,0,9.4998,9.5144,9.5306,9.5407,9.5488,9.5651,9.5757,9.5811,9.5921,9.6088,9.6201,9.638,9.6526,9.6813,9.6904,9.7072,9.7071,9.7218,9.7097,9.7083,9.7076,9.7066,9.7082,9.724,9.7244,9.7247,9.725,0,9.532,9.5348,9.55,9.5666,9.5793,9.5926,9.6055,9.6138,9.6211,9.6336,9.6519,9.6633,9.6857,9.7035,9.7208,9.7289,9.7283,9.7287,9.7329,9.7322,9.7293,9.7312,9.6881,9.7277,9.7274,9.7272,9.727,9.7269,9.5543,9.5673,9.5808,9.5978,9.6081,9.6203,9.6335,9.6413,9.6567,9.6754,9.6776,9.6974,9.7109,9.7341,9.743,9.7586,9.7547,9.7607,9.7623,9.7637,9.7648,9.7268,9.7617,9.7617,9.7616,9.7616,9.7615,0,9.5866,9.5953,9.6109,9.629,9.6425,9.6407,9.655,9.6664,9.6838,9.6964,9.7108,9.7321,9.7494,9.7599,9.7774,9.7879,9.7881,9.7923,9.7917,9.7936,9.7672,9.7619,9.7919,9.7919,9.7919,9.7919,9.7919,9.7919,9.605,9.627,9.6314,9.6586,9.6672,9.6865,9.6949,9.7062,9.7162,9.7399,9.7544,9.7611,9.773,9.7913,9.8073,9.8099,9.8164,9.821,9.8234,9.7985,9.7954,9.7924,9.7874,9.8224,9.8224,9.8485,9.8487,9.8489]},{"header":{"parameterUnit":"m.s-1","parameterCategory":1,"la1":30.2991,"la2":30.254,"lo1":-89.0895,"lo2":-89.0444,"dx":0.0017,"dy":0.0017,"nx":28,"ny":28,"refTime":"2023-02-12T09:00:00:Z","depth":0,"parameterNumber":3,"parameterNumberName":"V-component_of_WINDS"},"data":[0,0,0,0,0,0,0,0,0,0,0,0,0,0,0,0,0,0,0,0,0,0,0,0,0,0,0,0,0,0,0,0,0,0,0,0,0,0,0,0,0,0,0,0,0,0,0,0,0,0,0,0,0,0,0,0,0,0,-4.3585,-4.3585,0,-4.3652,-4.3653,-4.3654,-4.3609,-4.3607,-4.3605,-4.3603,-4.367,-4.3674,-4.3678,0,0,0,0,0,0,0,0,0,0,0,0,0,-4.3416,-4.342,-4.3585,-4.3585,-4.3586,-4.3652,-4.3653,-4.3654,-4.3609,-4.3607,-4.3604,-4.3602,-4.3669,-4.3673,-4.3678,0,0,0,0,0,0,0,0,0,0,0,0,0,-4.3487,-4.3421,-4.3584,-4.3572,-4.3572,-4.3652,-4.3653,-4.3654,-4.361,-4.3607,-4.3604,-4.3601,-4.3668,-4.3673,-4.3679,-4.3774,0,0,-4.3695,-4.3698,0,0,0,0,0,0,0,0,-4.3483,-4.3493,-4.3573,-4.3573,-4.3573,-4.3619,-4.3618,-4.3694,-4.3611,-4.3595,-4.3603,-4.3599,-4.3656,-4.3662,-4.3681,-4.3777,-4.378,-4.3696,-4.3699,-4.3702,-4.3703,0,0,0,0,0,0,0,-4.3478,-4.349,-4.3611,-4.3574,-4.3574,-4.3563,-4.3569,-4.3632,-4.3642,-4.3596,-4.3593,-4.3602,-4.3655,-4.3676,-4.3683,-4.3781,-4.3696,-4.3701,-4.3704,-4.3706,-4.396,-4.3963,0,0,0,0,0,0,-4.3475,-4.3486,-4.3609,-4.3613,-4.3519,-4.3568,-4.3576,-4.3607,-4.3641,-4.3643,-4.3605,-4.36,-4.3668,-4.3676,-4.3685,-4.38,-4.3702,-4.3707,-4.371,-4.3957,-4.3961,-4.3965,0,0,0,0,0,0,-4.3471,-4.3486,-4.3606,-4.3549,-4.3564,-4.3575,-4.361,-4.361,-4.3631,-4.3647,-4.3648,-4.3625,-4.3666,-4.3677,-4.3753,-4.3801,-4.3709,-4.3714,-4.3953,-4.3958,-4.3963,-4.403,0,0,0,0,0,0,-4.3466,-4.3485,-4.3522,-4.355,-4.3567,-4.3674,-4.3613,-4.3614,-4.3641,-4.3635,-4.3666,-4.3668,-4.3664,-4.3745,-4.3758,-4.3807,-4.3719,-4.3948,-4.3955,-4.3961,-4.4023,-4.4036,-4.4048,0,0,0,0,0,-4.3461,-4.3537,-4.3524,-4.3539,-4.3613,-4.3677,-4.3686,-4.368,-4.3645,-4.3682,-4.3693,-4.3667,-4.3794,-4.3753,-4.3768,-4.3819,-4.3945,-4.3953,-4.3961,-4.4018,-4.4034,-4.4048,0,0,0,0,0,0,-4.3513,-4.3541,-4.3526,-4.3614,-4.3644,-4.3669,-4.3715,-4.3697,-4.3737,-4.373,-4.372,-4.3728,-4.3807,-4.3821,-4.3774,-4.3914,-4.3864,-4.3875,-4.3902,-4.3918,-4.393,-4.3925,-4.3723,0,0,0,0,0,-4.3535,-4.3585,-4.3606,-4.3682,-4.3697,-4.3704,-4.3731,-4.3725,-4.3754,-4.3766,-4.3782,-4.3812,-4.3858,-4.3889,-4.3932,-4.4025,-4.4031,-4.4068,-4.408,-4.409,-4.41,-4.4151,-4.4167,-4.399,-4.399,-4.399,0,0,-4.3581,-4.3602,-4.3634,-4.3693,-4.3715,-4.3767,-4.3715,-4.3771,-4.3809,-4.3775,-4.3847,-4.386,-4.3892,-4.3978,-4.4016,-4.3991,-4.415,-4.41,-4.4108,-4.4112,-4.416,-4.4177,-4.4192,-4.3995,-4.3994,-4.3993,0,0,-4.369,-4.3711,-4.3777,-4.3801,-4.3835,-4.3839,-4.3855,-4.3883,-4.3891,-4.3964,-4.3939,-4.3984,-4.4064,-4.4088,-4.4111,-4.4231,-4.421,-4.4246,-4.431,-4.436,-4.4374,-4.4386,-4.4429,-4.4445,-4.4255,-4.4256,-4.4256,0,-4.3742,-4.382,-4.3813,-4.3872,-4.3899,-4.3871,-4.3938,-4.396,-4.4007,-4.4026,-4.3998,-4.4099,-4.4118,-4.4209,-4.4238,-4.4258,-4.4276,-4.4242,-4.4372,-4.4385,-4.4396,-4.4437,-4.4454,-4.426,-4.4259,-4.4259,-4.4258,0,-4.3882,-4.3937,-4.3985,-4.4032,-4.4065,-4.4127,-4.413,-4.4163,-4.4154,-4.4161,-4.4236,-4.4259,-4.4307,-4.4328,-4.4319,-4.4418,-4.4402,-4.4373,-4.4323,-4.4417,-4.4456,-4.4472,-4.4266,-4.4264,-4.4263,-4.4262,0,0,-4.4026,-4.4069,-4.4087,-4.4109,-4.4145,-4.4186,-4.4248,-4.4295,-4.4325,-4.4358,-4.4409,-4.4478,-4.4452,-4.4478,-4.4472,-4.4516,-4.461,-4.4482,-4.4483,-4.4505,-4.4721,-4.4742,-4.4761,-4.4596,-4.4599,-4.4602,-4.4718,0,-4.4138,-4.4246,-4.4242,-4.4343,-4.4393,-4.4367,-4.4421,-4.4449,-4.4457,-4.4501,-4.451,-4.4559,-4.4521,-4.4537,-4.4579,-4.459,-4.4653,-4.4581,-4.4644,-4.4646,-4.4637,-4.4781,-4.4803,-4.4912,-4.4733,-4.4736,-4.4738,0,-4.4283,-4.4322,-4.4428,-4.4458,-4.4478,-4.4527,-4.4571,-4.4612,-4.4644,-4.4647,-4.4677,-4.4664,-4.4726,-4.4674,-4.476,-4.4711,-4.4737,-4.4746,-4.475,-4.4756,-4.4698,-4.479,-4.4947,-4.4963,-4.4761,-4.4759,-4.4758,0,-4.4378,-4.4457,-4.4531,-4.4549,-4.4586,-4.462,-4.4637,-4.4665,-4.4695,-4.4733,-4.4752,-4.4797,-4.4821,-4.4856,-4.4856,-4.4818,-4.4943,-4.4891,-4.4947,-4.4947,-4.4974,-4.4973,-4.5137,-4.4991,-4.4991,-4.499,-4.499,0,-4.4503,-4.4569,-4.4574,-4.4619,-4.4692,-4.4687,-4.476,-4.4773,-4.4798,-4.4846,-4.4826,-4.4871,-4.4868,-4.4913,-4.4913,-4.4984,-4.4995,-4.5,-4.4999,-4.5002,-4.5001,-4.5018,-4.5011,-4.4995,-4.4994,-4.4993,-4.4992,0,-4.4622,-4.4627,-4.4706,-4.4735,-4.4743,-4.4796,-4.482,-4.4863,-4.487,-4.493,-4.4944,-4.4955,-4.5008,-4.5011,-4.5071,-4.5071,-4.5158,-4.5148,-4.5148,-4.5146,-4.5202,-4.5197,-4.5383,-4.5408,-4.5245,-4.5247,-4.5248,0,-4.4701,-4.4752,-4.4786,-4.4816,-4.4835,-4.4885,-4.4915,-4.4912,-4.4944,-4.4984,-4.5023,-4.5074,-4.5114,-4.5199,-4.5212,-4.5258,-4.525,-4.5312,-4.5257,-4.5258,-4.5252,-4.5249,-4.5254,-4.5323,-4.5325,-4.5326,-4.5327,0,-4.4843,-4.4843,-4.4888,-4.4934,-4.497,-4.5006,-4.5039,-4.5066,-4.5067,-4.5104,-4.5158,-4.5189,-4.5251,-4.5302,-4.5347,-4.5364,-4.5347,-4.5345,-4.536,-4.5364,-4.5361,-4.5364,-4.5177,-4.5341,-4.5339,-4.5338,-4.5338,-4.5337,-4.4944,-4.4988,-4.5019,-4.5069,-4.5094,-4.5126,-4.5168,-4.5181,-4.5226,-4.5277,-4.5273,-4.5333,-4.5363,-4.5422,-4.5443,-4.5489,-4.5468,-4.549,-4.5496,-4.5502,-4.5508,-4.5354,-4.5497,-4.5497,-4.5497,-4.5496,-4.5496,0,-4.5085,-4.5104,-4.515,-4.5198,-4.5238,-4.5218,-4.5254,-4.5289,-4.5342,-4.5372,-4.5413,-4.5475,-4.5524,-4.5542,-4.559,-4.5624,-4.5617,-4.5637,-4.5634,-4.5639,-4.5524,-4.5506,-4.5642,-4.5642,-4.5642,-4.5641,-4.5641,-4.5641,-4.5163,-4.5236,-4.524,-4.5326,-4.5344,-4.5403,-4.5426,-4.5455,-4.5479,-4.555,-4.5591,-4.5602,-4.5628,-4.5678,-4.5722,-4.5726,-4.5745,-4.5768,-4.5768,-4.5661,-4.5646,-4.5633,-4.5616,-4.5772,-4.5772,-4.5879,-4.588,-4.5881]}]]